"Pseudo-MPEC" for P10Ydh3

Created 2020 Mar 27 23:07:17 UT using Find_Orb

Click here for an explanation of pseudo-MPECs

 
 Astrometry: 
     P10Ydh3  C2020 03 25,XkIAstrometryTredacted;on/w``click39fj;bZ9ids=Ykt%@F51
     P10Ydh3  C2020 03 25%2RK[-@)p=D3X1LxUA`54here)y:psGkygJ1tuF'o*QgNE_jC:e]F51
     P10Ydh3  C2020 03 25)yffor(explanation:Bx3iCf1HQ+CRfm\=Z06YIZV=F9FyY(mUZF51
     P10Ydh3  C2020 03 27.89557 12 02 35.47 +06 41 23.2    ~3RM7 20.8 VVNEOCP033
     P10Ydh3  C2020 03 27.89915 12 02 35.26 +06 41 28.3    ~3RM7 20.7 VVNEOCP033
     P10Ydh3  C2020 03 27.90273 12 02 35.10 +06 41 33.2    ~3RM7 21.0 VVNEOCP033

Station data:
(033) Karl Schwarzschild Observatory, Tautenburg  (N50.980140 E11.711240)
   Germany. 1.3-m Schmidt.
(F51) Pan-STARRS 1, Haleakala  (N20.707235 W156.255910)  US/Hawaii.
   Observers N. Primak, A. Schultz, S. Watters, J. Thiel, T. Goggia. Measurer
   PS1 Science Consortium. 1.8-m Ritchey-Chrétien + CCD.

Orbital elements:  P10Ydh3
   Perihelion 2019 Feb 25.162705 +/- 240 TT =  3:54:17 (JD 2458539.662705)
Epoch 2020 Mar 27.0 TT = JDT 2458935.5   Earth MOID: 0.7558   AutoNEOCP
M 156.13296180 +/- 130              (J2000 ecliptic)
n   0.39443721 +/- 0.154            Peri.  209.54193 +/- 90
a   1.84141124 +/- 0.48             Node   175.27970 +/- 2.3
e   0.0492561 +/- 0.233             Incl.   22.45336 +/- 19
P   2.50/912.68d           H 19.6   G  0.15   U 11.5  SR
q 1.75071036 +/- 0.547    Q 1.93211211 +/- 3.7
From 6 observations 2020 Mar. 25-27; mean residual 0".15
Residuals in arcseconds: 
200325 F51  .04-  .15+    200325 F51  .05-  .07-    200327 033  .25-  .07+    
200325 F51  .10+  .09-    200327 033  .11-  .00     200327 033  .36+  .06-    

Ephemerides (geocentric):
Date (UTC) HH   RA              Dec         delta   r     elong  mag " sig PA
---- -- -- --  -------------   -----------  ------ ------ -----  --- ---- ---
2020 03 27 23  12 02 31.961   +06 42 57.88  .93684 1.9253 168.5 21.3 2.90  71
2020 03 28 00  12 02 29.724   +06 43 56.30  .93693 1.9253 168.4 21.3 3.33  68
2020 03 28 01  12 02 27.487   +06 44 54.70  .93702 1.9253 168.4 21.3 3.87  66
2020 03 28 02  12 02 25.252   +06 45 53.07  .93711 1.9253 168.3 21.3 4.51  65
2020 03 28 03  12 02 23.017   +06 46 51.41  .93720 1.9253 168.3 21.3 5.21  64
2020 03 28 04  12 02 20.784   +06 47 49.72  .93729 1.9253 168.2 21.3 5.97  63
2020 03 28 05  12 02 18.551   +06 48 48.00  .93738 1.9253 168.2 21.3 6.77  63
2020 03 28 06  12 02 16.320   +06 49 46.25  .93747 1.9253 168.1 21.3 7.62  62
2020 03 28 07  12 02 14.090   +06 50 44.48  .93756 1.9253 168.1 21.3 8.49  62
2020 03 28 08  12 02 11.860   +06 51 42.68  .93765 1.9253 168.0 21.3 9.40  62
2020 03 28 09  12 02 09.632   +06 52 40.84  .93774 1.9254 168.0 21.3 10.3  61
2020 03 28 10  12 02 07.405   +06 53 38.98  .93784 1.9254 167.9 21.3 11.3  61
2020 03 28 11  12 02 05.179   +06 54 37.09  .93793 1.9254 167.9 21.3 12.3  61
2020 03 28 12  12 02 02.954   +06 55 35.17  .93802 1.9254 167.8 21.3 13.3  61
2020 03 28 13  12 02 00.730   +06 56 33.22  .93812 1.9254 167.8 21.3 14.4  61
2020 03 28 14  12 01 58.508   +06 57 31.24  .93821 1.9254 167.7 21.3 15.4  61
2020 03 28 15  12 01 56.286   +06 58 29.23  .93830 1.9254 167.7 21.3 16.5  61
2020 03 28 16  12 01 54.065   +06 59 27.19  .93840 1.9254 167.6 21.3 17.7  61
2020 03 28 17  12 01 51.846   +07 00 25.12  .93849 1.9254 167.5 21.3 18.8  61
2020 03 28 18  12 01 49.628   +07 01 23.02  .93859 1.9254 167.5 21.3 20.0  61
2020 03 28 19  12 01 47.411   +07 02 20.90  .93869 1.9254 167.4 21.3 21.2  61
2020 03 28 20  12 01 45.195   +07 03 18.74  .93878 1.9255 167.4 21.3 22.4  61
2020 03 28 21  12 01 42.980   +07 04 16.55  .93888 1.9255 167.3 21.3 23.7  61
2020 03 28 22  12 01 40.766   +07 05 14.33  .93898 1.9255 167.3 21.3 24.9  61
2020 03 28 23  12 01 38.554   +07 06 12.08  .93908 1.9255 167.2 21.3 26.2  61
2020 03 29 00  12 01 36.343   +07 07 09.80  .93918 1.9255 167.2 21.3 27.5  61
2020 03 29 01  12 01 34.133   +07 08 07.49  .93928 1.9255 167.1 21.4 28.9  61
2020 03 29 02  12 01 31.924   +07 09 05.15  .93938 1.9255 167.1 21.4 30.3  60
2020 03 29 03  12 01 29.716   +07 10 02.77  .93948 1.9255 167.0 21.4 31.6  60
2020 03 29 04  12 01 27.510   +07 11 00.37  .93958 1.9255 167.0 21.4 33.1  60
2020 03 29 05  12 01 25.304   +07 11 57.93  .93968 1.9255 166.9 21.4 34.5  60
2020 03 29 06  12 01 23.100   +07 12 55.47  .93978 1.9256 166.9 21.4 36.0  60
2020 03 29 07  12 01 20.898   +07 13 52.97  .93988 1.9256 166.8 21.4 37.4  60
2020 03 29 08  12 01 18.696   +07 14 50.44  .93999 1.9256 166.7 21.4 38.9  60
2020 03 29 09  12 01 16.496   +07 15 47.88  .94009 1.9256 166.7 21.4 40.5  60
2020 03 29 10  12 01 14.296   +07 16 45.29  .94019 1.9256 166.6 21.4 42.0  60
2020 03 29 11  12 01 12.099   +07 17 42.67  .94030 1.9256 166.6 21.4 43.6  60
2020 03 29 12  12 01 09.902   +07 18 40.01  .94040 1.9256 166.5 21.4 45.2  60
2020 03 29 13  12 01 07.707   +07 19 37.32  .94051 1.9256 166.5 21.4 46.8  60
2020 03 29 14  12 01 05.513   +07 20 34.60  .94061 1.9256 166.4 21.4 48.5  60
2020 03 29 15  12 01 03.320   +07 21 31.85  .94072 1.9256 166.4 21.4 50.1  60
2020 03 29 16  12 01 01.128   +07 22 29.07  .94082 1.9256 166.3 21.4 51.8  60
2020 03 29 17  12 00 58.938   +07 23 26.25  .94093 1.9257 166.3 21.4 53.6  60
2020 03 29 18  12 00 56.749   +07 24 23.41  .94104 1.9257 166.2 21.4 55.3  60
2020 03 29 19  12 00 54.562   +07 25 20.53  .94114 1.9257 166.2 21.4 57.1  60
2020 03 29 20  12 00 52.376   +07 26 17.61  .94125 1.9257 166.1 21.4 58.8  60
2020 03 29 21  12 00 50.191   +07 27 14.67  .94136 1.9257 166.0 21.4 60.7  60
2020 03 29 22  12 00 48.007   +07 28 11.69  .94147 1.9257 166.0 21.4 62.5  60